SL-16 DEB, 39300

Orbit data source: Space-Track

SL-16 DEB, 39300 is space debris in LEO originally from a launch on Fri, 25 Dec 1992 UTC launched from the Tyuratam Missile And Space Complex (TTMTR). Debris objects in space refer to the collection of defunct objects orbiting the Earth. Examples of debris include non-operational satellites, rocket bodies, and fragments generated from explosions, collisions, or faulty payload assembly.

Loading next visibility...
Identifier
39300, 1992-093JR
Orbit
LEO
Country
Flag of CISCIS
Related business
Manufacturer
Unknown
Mission
Spacecraft
Bus & Motor
Unknown
Mass
Unknown
Launch date (UTC)
1992-12-25 (33 years ago)
Launch vehicle
Unknown
Launch site
Tyuratam Missile And Space Complex (TTMTR)
Object type
Payload
Rocket body
Debris
Shape & HBR
Unknown shape, 0.1 m
Radar Cross Section
Small (<0.1 m²)

Expand to show TLE details & history
Last TLE update: 5 days ago

TLE from 5 days ago
0 SL-16 DEB
1 39300U 92093JR  25345.49563037  .00000502  00000-0  37504-3 0  9993
2 39300  71.1221  71.5978 0105221 213.4088 146.0359 13.96867996623727
Epoch: 2025-12-11T11:53Z
TLE epoch observation values (Epoch: 2025-12-11T11:53:42.463Z)
Latitude
-0.00004°
Longitude
172.72008°
Altitude
970.862 km
Speed
7.334 km/s
True Right ascension
04h 46m 23s
True Declination
0° 00' 00"
Sunlit
Object was in full shadow at epoch
Visualization orbit readout
Latitude
Unknown
Longitude
Unknown
Altitude
Unknown
Speed
Unknown
Apparent Right ascension
Unknown
Apparent Declination
Unknown
Sunlit
N/A
Visualization observer readout
Local Sidereal Time
18:31:52
Azimuth
Unknown
Elevation
Unknown
Doppler factor
Unknown
Orbital elements
Apogee altitude
979.2 km
Perigee altitude
825.983 km
Semi-major axis
7,280.728 km
Eccentricity
0.01052
Inclination
71.1221°
RAAN
71.5978°
Arg. of periapsis
213.4088°
True anomaly
146.70223°
Mean anomaly
146.0359°
Eccentric anomaly
146.36979°
Mean motion
3.49366 °/min
Orbital period
103.04 mins
BSTAR
0.00037504
Loading maneuver chart data...
Computing Atmospheric mass density...
Loading historical data...
Loading historical data...
Loading historical data...
Loading historical data...
Loading historical data...
Loading historical data...
Loading historical data...

Documentation

Showing up to 5 results
|